Tracking 28052 objects as of 23-Sep-2023
HD Live streaming from Space Station
objects crossing your sky now

OBJECT K

Track OBJECT K now!
10-day predictions


NORAD ID: 55257
Int'l Code: 2023-007K
Perigee: 470.1 km
Apogee: 482.5 km
Inclination: 97.3 °
Period: 94.0 minutes
Semi major axis: 6847 km
RCS: Unknown
Launch date: January 15, 2023
Source: People's Republic of China (PRC)
Launch site: Taiyaun Space Center, China (TSC)
Your satellite tracking list
Your tracking list is empty




NASA's NSSDC Master Catalog

Two Line Element Set (TLE):
1 55257U 23007K   23265.72444165  .00017884  00000-0  57561-3 0  9992
2 55257  97.3494 337.4488 0009044 110.0095 250.2122 15.32240998 38280
Source of the keplerian elements: AFSPC